Location: Byszew
(52.1813°N, 19.2693°E)
Time: 17:51:22
(UTC+00:00)

Gbstr 26 Del rocket - Pass Details

Date: 03 March 2021
Orbit: 492 x 1264 km, 51.8° (Epoch: 17 April)

Event Time Altitude Azimuth Distance (km) Brightness Sun altitude
Rises 18:09:17 0° 267° (W) 2,818 8.0 -16.5°
Reaches altitude 10° 18:11:22 10° 267° (W) 2,000 6.9 -16.8°
Maximum altitude 18:15:57 87° 179° (S) 726 3.3 -17.5°
Enters shadow 18:18:33 32° 91° (E) 1,328 4.2 -17.9°
